(48513) = 1991 TL10 = 1993 FB22

Discovered at La Silla on 1993-03-21 by UESAC.

Orbit

Orbit type: Main Belt

Note: WebGL enabled browser required.

epoch2024-03-31.0
epoch JD2460400.5
perihelion date2025-09-07.09319
perihelion JD2460925.59319
argument of perihelion (°)75.23168
ascending node (°)7.89027
inclination (°)1.17551
eccentricity0.1551335
perihelion distance (AU)2.0250615
Tisserand w.r.t. Jupiter3.5
ΔV w.r.t. Earth (km/sec)8.9
semimajor axis (AU)2.3969010
mean anomaly (°)220.53505
mean daily motion (°/day)0.26560040
aphelion distance (AU)2.769
period (years)3.71
P-vector [x]0.11978450
P-vector [y]0.90280343
P-vector [z]0.41303467
Q-vector [x]-0.99279592
Q-vector [y]0.10774557
Q-vector [z]0.05241327
absolute magnitude15.66
phase slope0.15
uncertainty0
referenceMPEC 2024-C115
observations used1349
oppositions18
arc length (days)11606
first opposition used1991
last opposition used2023
residual rms (arc-secs)0.71
perturbers coarse indicatorM-v
perturbers precise indicator003Ek
first observation date used1991-09-12.0
last observation date used2023-06-22.0
computer nameMPCLINUX
JD of orbit computation2456966.857646
perihelion JD uncertainty (days)5.2690E-05
argument of perihelion uncertainty (°)1.5714E-04
ascending node uncertainty (°)1.5645E-04
inclination uncertainty (°)4.0756E-06
eccentricity uncertainty 2.7420E-08
perihelion distance uncertainty (AU)6.5784E-08
Minimum Orbit Intersection Distances (in AU)
for orbit epoch: 2460200.5, reference: E2024-CB5
Mercury1.71841
Venus1.30577
Earth1.04089
Mars0.43986
Jupiter2.44383
Saturn7.02312
Uranus16.0421
Neptune27.5284

Observations

1370 total observations over interval: 1991 09 12.39502 – 2023 06 22.313252
These data are available for download (format description).

Date (UT) J2000 RA J2000 Dec Magn Location Ref
1991 09 12.39502 01 32 29.28 +09 43 04.5   691 – Steward Observatory, Kitt Peak-Spacewatch MPC 23408
1991 09 12.41581 01 32 28.72 +09 43 02.7 19.0 V 691 – Steward Observatory, Kitt Peak-Spacewatch MPC 23408
1991 10 08.39670 01 14 12.11 +08 14 24.2 18.5   675 – Palomar Mountain MPC 28995
1991 10 08.42222 01 14 10.69 +08 14 16.6   675 – Palomar Mountain MPC 28995
1991 10 10.39392 01 12 19.10 +08 04 33.8   691 – Steward Observatory, Kitt Peak-Spacewatch MPC 20433
1991 10 10.41498 01 12 17.89 +08 04 27.4 18.2 V 691 – Steward Observatory, Kitt Peak-Spacewatch MPC 20433
1991 10 10.43710 01 12 16.54 +08 04 20.6   691 – Steward Observatory, Kitt Peak-Spacewatch MPC 20433
1991 10 15.31144 01 07 37.33 +07 39 44.4 18.1 V 691 – Steward Observatory, Kitt Peak-Spacewatch MPC 20433
1991 10 15.32363 01 07 36.63 +07 39 41.2   691 – Steward Observatory, Kitt Peak-Spacewatch MPC 20433
1991 10 15.33420 01 07 35.93 +07 39 37.9   691 – Steward Observatory, Kitt Peak-Spacewatch MPC 20433
1993 03 21.30174 13 08 57.34 -07 26 38.4 19.4   809 – European Southern Observatory, La Silla MPC 23451
1993 03 22.29549 13 08 05.37 -07 21 53.5 19.6   809 – European Southern Observatory, La Silla MPC 23451
1993 03 26.32604 13 04 26.50 -07 01 48.1 19.6   809 – European Southern Observatory, La Silla MPC 23451
1993 04 16.57641 12 44 36.00 -05 09 01.6 18.3   413 – Siding Spring Observatory MPC 23382
1999 11 16.44281 09 11 56.69 +17 41 45.4 18.9   704 – Lincoln Laboratory ETS, New Mexico MPS 9786
1999 11 16.45703 09 11 57.67 +17 41 41.8 19.0   704 – Lincoln Laboratory ETS, New Mexico MPS 9786
1999 11 16.47126 09 11 58.59 +17 41 39.3 19.1   704 – Lincoln Laboratory ETS, New Mexico MPS 9786
1999 11 16.48562 09 11 59.60 +17 41 34.0 18.8   704 – Lincoln Laboratory ETS, New Mexico MPS 9786
2000 01 04.37087 09 32 35.41 +16 29 54.9 18.7   704 – Lincoln Laboratory ETS, New Mexico MPS 8335
2000 01 04.38551 09 32 34.98 +16 29 56.3 19.2   704 – Lincoln Laboratory ETS, New Mexico MPS 8335
2000 01 04.40026 09 32 34.52 +16 29 57.5 19.3   704 – Lincoln Laboratory ETS, New Mexico MPS 8335
2000 01 04.41516 09 32 34.10 +16 30 00.6 19.3   704 – Lincoln Laboratory ETS, New Mexico MPS 8335
2000 01 06.31904 09 31 42.98 +16 34 39.0 18.0   704 – Lincoln Laboratory ETS, New Mexico MPS 8335
2000 01 06.33379 09 31 42.42 +16 34 40.5 18.7   704 – Lincoln Laboratory ETS, New Mexico MPS 8335
2000 01 06.34844 09 31 41.99 +16 34 42.9 18.2   704 – Lincoln Laboratory ETS, New Mexico MPS 8335
2000 01 06.36307 09 31 41.52 +16 34 45.7 18.0   704 – Lincoln Laboratory ETS, New Mexico MPS 8335
2000 01 13.31309 09 27 31.80 +16 55 48.6 18.1 R 699 – Lowell Observatory-LONEOS MPS 11763
2000 01 13.33854 09 27 30.61 +16 55 54.1   699 – Lowell Observatory-LONEOS MPS 11763
2000 01 13.36399 09 27 29.48 +16 55 58.9   699 – Lowell Observatory-LONEOS MPS 11763
2000 01 30.28273 09 12 15.11 +18 03 14.5 17.9 R 703 – Catalina Sky Survey MPS 9786
2000 01 30.29448 09 12 14.33 +18 03 17.3 17.7 R 703 – Catalina Sky Survey MPS 9786
2000 01 30.30621 09 12 13.59 +18 03 20.7 17.6 R 703 – Catalina Sky Survey MPS 9786
2000 01 30.31792 09 12 12.84 +18 03 23.3 17.3 R 703 – Catalina Sky Survey MPS 9786
2000 02 03.23645 09 08 08.93 +18 19 24.6 17.2   704 – Lincoln Laboratory ETS, New Mexico MPS 9786
2000 02 03.25112 09 08 07.99 +18 19 28.5 17.5   704 – Lincoln Laboratory ETS, New Mexico MPS 9786
2000 02 03.26574 09 08 06.92 +18 19 33.4 19.5   704 – Lincoln Laboratory ETS, New Mexico MPS 9786
2000 02 03.28038 09 08 06.04 +18 19 35.9 17.2   704 – Lincoln Laboratory ETS, New Mexico MPS 9786
2000 02 03.29505 09 08 05.08 +18 19 39.0 17.7   704 – Lincoln Laboratory ETS, New Mexico MPS 9786
2000 02 05.23655 09 06 04.15 +18 27 18.8 18.0   704 – Lincoln Laboratory ETS, New Mexico MPS 9786
2000 02 05.23724 09 06 04.06 +18 27 19.0 17.4   704 – Lincoln Laboratory ETS, New Mexico MPS 9786
2000 02 05.25185 09 06 03.20 +18 27 22.2 19.2   704 – Lincoln Laboratory ETS, New Mexico MPS 9786
2000 02 05.25254 09 06 03.07 +18 27 22.0 18.5   704 – Lincoln Laboratory ETS, New Mexico MPS 9786
2000 02 05.26706 09 06 02.15 +18 27 25.8 18.6   704 – Lincoln Laboratory ETS, New Mexico MPS 9786
2000 02 05.26776 09 06 02.10 +18 27 26.2 17.2   704 – Lincoln Laboratory ETS, New Mexico MPS 9786
2000 02 05.28229 09 06 01.19 +18 27 30.0 18.7   704 – Lincoln Laboratory ETS, New Mexico MPS 9786
2000 02 05.28299 09 06 01.11 +18 27 30.1 18.0   704 – Lincoln Laboratory ETS, New Mexico MPS 9786
2000 02 05.29824 09 06 00.10 +18 27 33.6 18.4   704 – Lincoln Laboratory ETS, New Mexico MPS 9786
2000 02 11.24303 08 59 58.05 +18 49 15.6 18.0   704 – Lincoln Laboratory ETS, New Mexico MPS 9786
2000 02 11.25754 08 59 57.16 +18 49 19.2 18.1   704 – Lincoln Laboratory ETS, New Mexico MPS 9786
2000 02 11.27217 08 59 56.27 +18 49 21.8 18.1   704 – Lincoln Laboratory ETS, New Mexico MPS 9786
2000 02 11.28669 08 59 55.36 +18 49 25.3 18.0   704 – Lincoln Laboratory ETS, New Mexico MPS 9786
2000 02 11.30146 08 59 54.44 +18 49 28.1 18.1   704 – Lincoln Laboratory ETS, New Mexico MPS 9786
2000 03 04.25697 08 43 51.08 +19 34 12.6 19.7   704 – Lincoln Laboratory ETS, New Mexico MPS 10704
2000 03 04.28388 08 43 50.46 +19 34 12.5 18.9   704 – Lincoln Laboratory ETS, New Mexico MPS 10704
2000 03 04.29754 08 43 50.04 +19 34 12.9 19.1   704 – Lincoln Laboratory ETS, New Mexico MPS 10704
2000 03 09.22953 08 42 14.99 +19 35 24.1 18.5   704 – Lincoln Laboratory ETS, New Mexico MPS 10704
2000 03 09.24292 08 42 14.66 +19 35 23.4 19.8   704 – Lincoln Laboratory ETS, New Mexico MPS 10704
2000 03 09.25574 08 42 14.50 +19 35 23.7 19.2   704 – Lincoln Laboratory ETS, New Mexico MPS 10704
2000 03 09.26855 08 42 14.31 +19 35 22.6 19.9   704 – Lincoln Laboratory ETS, New Mexico MPS 10704
2000 03 09.28136 08 42 14.04 +19 35 23.4 20.0   704 – Lincoln Laboratory ETS, New Mexico MPS 10704
2000 03 30.27487 08 44 40.24 +19 06 24.8 18.7   608 – Haleakala-AMOS MPS 11763
2000 03 30.28558 08 44 40.51 +19 06 22.6 18.6   608 – Haleakala-AMOS MPS 11763
2000 03 30.29612 08 44 40.77 +19 06 21.2 18.9   608 – Haleakala-AMOS MPS 11763
2002 08 31.33604 00 13 18.98 +00 51 41.7 18.3 R 699 – Lowell Observatory-LONEOS MPS 60684
2002 08 31.35363 00 13 18.21 +00 51 38.1   699 – Lowell Observatory-LONEOS MPS 60684
2002 08 31.37119 00 13 17.60 +00 51 33.8   699 – Lowell Observatory-LONEOS MPS 60684
2002 08 31.38873 00 13 16.89 +00 51 29.2   699 – Lowell Observatory-LONEOS MPS 60684
2002 09 05.27713 00 09 55.54 +00 32 04.0 18.6   704 – Lincoln Laboratory ETS, New Mexico MPS 60684
2002 09 05.29111 00 09 54.91 +00 32 00.1 19.5   704 – Lincoln Laboratory ETS, New Mexico MPS 60684
2002 09 05.31918 00 09 53.60 +00 31 54.0 18.9   704 – Lincoln Laboratory ETS, New Mexico MPS 60684
2002 09 05.320720 00 09 53.487 +00 31 52.02 18.60 V 645 – Apache Point-Sloan Digital Sky Survey MPS 81221
2002 09 05.324192 00 09 53.325 +00 31 51.10 19.46   645 – Apache Point-Sloan Digital Sky Survey MPS 81221
2002 09 05.33319 00 09 52.91 +00 31 49.2 18.6   704 – Lincoln Laboratory ETS, New Mexico MPS 60684
2002 09 07.26782 00 08 24.70 +00 23 15.0 18.5   704 – Lincoln Laboratory ETS, New Mexico MPS 60684
2002 09 07.29586 00 08 23.30 +00 23 07.7 19.1   704 – Lincoln Laboratory ETS, New Mexico MPS 60684
2002 09 07.30987 00 08 22.62 +00 23 04.3 19.2   704 – Lincoln Laboratory ETS, New Mexico MPS 60684
2002 09 07.32400 00 08 21.93 +00 23 00.6 19.0   704 – Lincoln Laboratory ETS, New Mexico MPS 60684
2002 09 14.39348 00 02 25.70 -00 11 33.4 17.8   644 – Palomar Mountain/NEAT MPS 62479
2002 09 14.40511 00 02 25.06 -00 11 37.0 17.8   644 – Palomar Mountain/NEAT MPS 62479
2002 09 14.41553 00 02 24.48 -00 11 40.3 17.9   644 – Palomar Mountain/NEAT MPS 62479
2002 09 15.48819 00 01 26.76 -00 17 15.0 18.0   644 – Palomar Mountain/NEAT MPS 62479
2002 09 15.49895 00 01 26.18 -00 17 18.2 18.0   644 – Palomar Mountain/NEAT MPS 62479
2002 09 15.50957 00 01 25.58 -00 17 21.5 18.0   644 – Palomar Mountain/NEAT MPS 62479
2002 10 02.38188 23 45 47.68 -01 47 38.8 19.2   608 – Haleakala-AMOS MPS 62479
2002 10 02.39228 23 45 47.10 -01 47 42.8 19.9   608 – Haleakala-AMOS MPS 62479
2002 10 02.40272 23 45 46.50 -01 47 45.2 18.8   608 – Haleakala-AMOS MPS 62479
